[[{"header":{"parameterUnit":"m.s-1","parameterCategory":1,"la1":30.2992,"la2":30.254,"lo1":-89.0895,"lo2":-89.0443,"dy":0.0025,"dx":0.0025,"nx":19,"ny":19,"refTime":"2026-04-28T21:00:00:Z","depth":0,"parameterNumber":2,"parameterNumberName":"U-component_of_WINDS"},"data":[0,0,0,1.7364,1.7366,1.7486,1.7487,1.7632,1.7633,0,0,0,0,0,0,0,0,0,0,0,1.7324,1.7325,1.7364,1.7366,1.7486,1.7487,1.7632,1.7633,0,0,0,0,0,0,0,0,0,0,0,1.7324,1.7325,1.7326,1.7367,1.7486,1.7487,1.7631,1.7543,0,0,0,0,0,0,0,0,0,0,1.7428,1.7389,1.7325,1.7326,1.7368,1.7486,1.7487,1.7539,1.7549,1.7574,0,1.7597,0,1.7617,1.7642,1.7643,0,0,0,1.7369,1.7381,1.7417,1.7326,1.7369,1.7486,1.7433,1.7545,1.7556,1.7587,1.7599,1.7605,1.762,1.7643,1.7644,1.7784,1.7785,0,0,1.7362,1.7344,1.7409,1.7423,1.7406,1.7429,1.7436,1.7551,1.7563,1.76,1.7608,1.7622,1.7644,1.7645,1.7784,1.7785,0,0,0,1.7342,1.7339,1.7372,1.7417,1.7439,1.7432,1.7441,1.7558,1.757,1.761,1.7624,1.7645,1.7647,1.7783,1.7784,1.7793,0,0,0,1.7338,1.7327,1.7369,1.7359,1.7437,1.75,1.7445,1.7562,1.7576,1.7623,1.7645,1.7648,1.7783,1.7784,1.7791,1.7799,0,0,0,1.7318,1.7325,1.7341,1.7358,1.7409,1.7499,1.7518,1.7566,1.7584,1.7643,1.7648,1.7783,1.7784,1.779,1.7797,1.783,0,0,0,1.7291,1.7346,1.7341,1.7408,1.7407,1.7504,1.7518,1.759,1.7641,1.7646,1.7783,1.7784,1.7789,1.7796,1.7829,1.7855,1.7864,0,0,1.735,1.7353,1.7394,1.7392,1.7485,1.7487,1.7581,1.7645,1.7667,1.7744,1.7747,1.7792,1.7797,1.783,1.7923,1.793,0,0,0,1.7406,1.7435,1.7464,1.7512,1.7563,1.7607,1.7659,1.7683,1.7749,1.7703,1.7814,1.7817,1.7838,1.7851,1.7857,1.7875,1.779,1.7789,1.7789,1.7462,1.7489,1.7558,1.7598,1.7645,1.7699,1.7738,1.7779,1.7792,1.7817,1.784,1.7893,1.7908,1.7913,1.7931,1.7856,1.7856,1.7856,1.7857,1.7551,1.7596,1.7612,1.7684,1.7711,1.7773,1.7826,1.7833,1.7893,1.7878,1.7897,1.7879,1.792,1.7937,1.7857,1.7857,1.7857,1.7857,1.7857,1.759,1.7616,1.7645,1.7717,1.777,1.7809,1.7867,1.7889,1.7911,1.793,1.7956,1.7956,1.7958,1.7941,1.7941,1.7941,1.7941,1.7941,1.7941,1.7619,1.7651,1.7697,1.7756,1.779,1.7837,1.7892,1.7925,1.7968,1.798,1.7981,1.7989,1.7919,1.7901,1.7944,1.7944,1.7944,1.7943,1.7943,1.7698,1.7683,1.7754,1.7788,1.7859,1.791,1.7938,1.8005,1.8036,1.8064,1.8069,1.8014,1.8018,1.8013,1.7998,1.8064,1.8064,1.8064,1.8064,1.773,1.7735,1.7812,1.7865,1.7919,1.7952,1.803,1.8073,1.8114,1.8135,1.8129,1.8111,1.8105,1.8112,1.8106,1.8092,1.818,1.818,1.8181,1.7779,1.779,1.7853,1.7894,1.7951,1.7999,1.8074,1.8133,1.8177,1.8186,1.8152,1.8147,1.8118,1.8107,1.8114,1.8103,1.8078,0,0]},{"header":{"parameterUnit":"m.s-1","parameterCategory":1,"la1":30.2992,"la2":30.254,"lo1":-89.0895,"lo2":-89.0443,"dy":0.0025,"dx":0.0025,"nx":19,"ny":19,"refTime":"2026-04-28T21:00:00:Z","depth":0,"parameterNumber":3,"parameterNumberName":"V-component_of_WINDS"},"data":[0,0,0,1.736,1.7364,1.7579,1.758,1.7833,1.7835,0,0,0,0,0,0,0,0,0,0,0,1.7283,1.7284,1.7359,1.7364,1.7579,1.758,1.7832,1.7835,0,0,0,0,0,0,0,0,0,0,0,1.7283,1.7284,1.7286,1.7365,1.7578,1.758,1.7832,1.7677,0,0,0,0,0,0,0,0,0,0,1.7472,1.739,1.7284,1.7286,1.7366,1.7578,1.758,1.767,1.7687,1.7726,0,1.7758,0,1.78,1.785,1.7851,0,0,0,1.7374,1.7375,1.7445,1.7286,1.7368,1.7578,1.7485,1.768,1.7699,1.7748,1.7762,1.7772,1.7805,1.7852,1.7853,1.8051,1.8051,0,0,1.7362,1.7315,1.7432,1.7457,1.7423,1.7478,1.7491,1.7692,1.7703,1.7763,1.7778,1.7809,1.7853,1.7855,1.805,1.8051,0,0,0,1.7321,1.7306,1.7371,1.7446,1.7486,1.7484,1.7499,1.7694,1.7719,1.7781,1.7812,1.7855,1.7857,1.805,1.8051,1.803,0,0,0,1.7315,1.7283,1.7366,1.7339,1.7482,1.7593,1.7497,1.7706,1.773,1.781,1.7855,1.786,1.8049,1.805,1.803,1.8028,0,0,0,1.7274,1.7278,1.7305,1.7336,1.7427,1.7591,1.7628,1.7712,1.7748,1.7851,1.786,1.8049,1.805,1.8029,1.8028,1.8068,0,0,0,1.7216,1.7282,1.7303,1.739,1.7425,1.7577,1.7627,1.7743,1.7828,1.7856,1.805,1.805,1.8029,1.8028,1.8067,1.8094,1.81,0,0,1.7273,1.7287,1.7342,1.7367,1.7504,1.7548,1.7682,1.7804,1.7856,1.7983,1.7988,1.803,1.8028,1.8068,1.8152,1.8157,0,0,0,1.7344,1.7383,1.7429,1.751,1.7606,1.7689,1.7796,1.7842,1.7952,1.7912,1.8056,1.8057,1.8082,1.8097,1.8101,1.8126,1.8055,1.8055,1.8055,1.7357,1.7422,1.7517,1.7608,1.7686,1.7797,1.7866,1.7947,1.7987,1.8021,1.8059,1.8102,1.8118,1.8121,1.8147,1.8077,1.8077,1.8077,1.8077,1.7448,1.7514,1.7569,1.7681,1.7749,1.7844,1.7954,1.798,1.8079,1.8078,1.8104,1.8098,1.8124,1.815,1.8076,1.8077,1.8077,1.8077,1.8077,1.7465,1.7508,1.7563,1.7688,1.7777,1.7867,1.7959,1.8017,1.8072,1.8098,1.8145,1.8146,1.8154,1.8116,1.8116,1.8117,1.8117,1.8117,1.8117,1.746,1.7524,1.7595,1.7704,1.7765,1.7852,1.7965,1.8026,1.8109,1.8144,1.8145,1.8183,1.8115,1.8097,1.812,1.8119,1.8119,1.8119,1.8118,1.7529,1.7523,1.7633,1.7694,1.7828,1.7913,1.7987,1.8107,1.8166,1.821,1.8244,1.8183,1.8202,1.8199,1.8185,1.8229,1.8229,1.8229,1.8229,1.7543,1.7559,1.7686,1.7779,1.7878,1.7956,1.8079,1.8169,1.826,1.8301,1.8303,1.8289,1.8283,1.8305,1.83,1.8287,1.8357,1.8357,1.8357,1.759,1.7618,1.7711,1.7802,1.7912,1.8005,1.8123,1.8228,1.833,1.8363,1.8334,1.8329,1.8307,1.8296,1.8327,1.8318,1.8296,0,0]}]]